Flag for Monaco Weather past 2 weeks in Monaco, Monaco

Now
61 °F

Partly sunny.


Feels Like: 61 °F
Forecast: 56 / 61 °F
Wind: 7 mph from Southeast

Location: Nice Airport

Current Time: Apr 26, 2015 at 8:36:38 AM

Latest Report: Apr 26, 2015 at 8:00 AM


Visibility: N/A

Pressure: 29.95 "Hg

Humidity: 88%

Dew point: 57 °F

Location of MonacoLocation

Historic Weather in Monaco — Graph

°F

Monaco temperature yesterday

Maximum temperature yesterday: 64 °F (at 4:30 PM)
Minimum temperature yesterday: 55 °F (at 6:00 AM)
Average temperature yesterday: 60 °F

Past Weeks' High & Low Weather Summary

 TemperatureHumidityPressure
High70 °F (Apr 13, 10:30 AM)94% (Apr 15, 12:00 AM)30.42 "Hg (Apr 15, 12:00 AM)
Low48 °F (Apr 11, 7:00 AM)40% (Apr 13, 10:30 AM)29.89 "Hg (Apr 18, 4:30 AM)
Average60 °F75%30.13 "Hg
* Reported Apr 11 7:00 AM — Apr 26 7:30 AM, Monaco, Weather by CustomWeather, © 2015

Note: Actual official high and low records may vary slightly from our data, if they occured in-between our weather recording intervals... More about our weather records

Advertising

Monaco weather history for previous 24 hours

 ConditionsComfort  
Time TempWeatherWind HumidityBarometerVisibility
7:30 AM
Sun, Apr 26
61 °FPassing clouds.8 mph88%29.92 "HgN/A
7:00 AM61 °FPassing clouds.5 mph88%29.92 "HgN/A
6:30 AM59 °FPassing clouds.No wind88%29.92 "HgN/A
6:00 AM59 °FPassing clouds.3 mph88%29.92 "HgN/A
5:30 AM59 °FPassing clouds.3 mph82%29.92 "HgN/A
5:00 AM59 °FPassing clouds.2 mph82%29.92 "HgN/A
4:30 AM59 °FPartly cloudy.5 mph82%29.95 "HgN/A
4:00 AM59 °FPartly cloudy.6 mph88%29.95 "HgN/A
3:30 AM59 °FPartly cloudy.3 mph82%29.95 "HgN/A
3:00 AM59 °FPartly cloudy.5 mph82%29.95 "HgN/A
2:30 AM59 °FPartly cloudy.3 mph88%29.98 "HgN/A
2:00 AM59 °FPartly cloudy.No wind88%29.98 "HgN/A
1:30 AM61 °FPartly cloudy.No wind88%29.98 "HgN/A
1:00 AM61 °FPartly cloudy.2 mph88%29.98 "HgN/A
12:30 AM61 °FPartly cloudy.3 mph88%29.98 "HgN/A
12:00 AM61 °FPartly cloudy.3 mph88%30.01 "HgN/A
11:00 PM
Sat, Apr 25
61 °FPartly cloudy.2 mph88%30.01 "HgN/A
10:30 PM61 °FPartly cloudy.2 mph88%30.01 "HgN/A
10:00 PM61 °FPassing clouds.3 mph88%30.01 "HgN/A
9:30 PM61 °FPassing clouds.3 mph88%30.01 "HgN/A
9:00 PM61 °FPartly sunny.3 mph88%29.98 "HgN/A
8:30 PM61 °FPartly sunny.5 mph83%29.98 "HgN/A
8:00 PM63 °FPartly sunny.3 mph77%29.98 "HgN/A
7:30 PM63 °FPartly sunny.5 mph77%29.98 "HgN/A
7:00 PM63 °FPartly sunny.5 mph77%29.98 "HgN/A
6:30 PM63 °FPartly sunny.6 mph77%29.98 "HgN/A
6:00 PM63 °FPartly sunny.6 mph77%29.98 "HgN/A
5:30 PM63 °FScattered clouds.6 mph77%30.01 "HgN/A
5:00 PM64 °FScattered clouds.9 mph73%29.98 "HgN/A
4:30 PM64 °FScattered clouds.7 mph73%29.98 "HgN/A
4:00 PM63 °FScattered clouds.5 mph73%30.01 "HgN/A
3:30 PM63 °FScattered clouds.5 mph73%30.01 "HgN/A
3:00 PM63 °FScattered clouds.5 mph77%30.04 "HgN/A
2:30 PM63 °FBroken clouds.5 mph73%30.04 "HgN/A
2:00 PM63 °FBroken clouds.5 mph73%30.04 "HgN/A
1:30 PM61 °FBroken clouds.6 mph77%30.04 "HgN/A
1:00 PM61 °FBroken clouds.5 mph77%30.04 "HgN/A
12:30 PM61 °FPartly sunny.3 mph77%30.04 "HgN/A
12:00 PM61 °FPartly sunny.5 mph77%30.04 "HgN/A
11:30 AM61 °FPartly sunny.5 mph77%30.04 "HgN/A
11:00 AM61 °FPartly sunny.5 mph83%30.04 "HgN/A
10:30 AM59 °FLight rain. Broken clouds.6 mph82%30.04 "HgN/A
10:00 AM61 °FLight rain. Broken clouds.1 mph72%30.07 "HgN/A
9:30 AM61 °FLight rain. Broken clouds.2 mph68%30.07 "HgN/A
9:00 AM59 °FBroken clouds.5 mph72%30.04 "HgN/A
8:30 AM57 °FBroken clouds.3 mph77%30.04 "HgN/A
8:00 AM57 °FBroken clouds.5 mph77%30.04 "HgN/A
Weather by CustomWeather, © 2015

See weather overviewHow to use our weather pages